Weather History for Oconto, WI

Change the Weather History Date:

Friday, April 19, 2013

  Actual Average Record
Temperature  
Mean Temperature 34 °F -  
Max Temperature 42 °F 55 °F 52 °F (2014)
Min Temperature 26 °F 34 °F 25 °F (2014)
Degree Days  
Heating Degree Days 31    
Moisture  
Dew Point 25 °F    
Average Humidity 69    
Maximum Humidity 100    
Minimum Humidity 46    
Precipitation  
Precipitation 0.05 in - - ()
Sea Level Pressure  
Sea Level Pressure 29.39 in    
Wind  
Wind Speed 13 mph (West)    
Max Wind Speed 26 mph    
Max Gust Speed 40 mph    
Visibility 10 miles    
Events      
Averages and records for this station are not official NWS values.
T = Trace of Precipitation, MM = Missing Value Source: NWS Daily Summary

Daily Weather History Graph

Daily Weather History Graph

Search for Another Location

Airport:

Trip Planner

Search our weather history database for the weather conditions in past years. The results will help you decide how hot, cold, wet, or windy it might be!

Date:

Astronomy

Apr. 19, 2013 Rise Set
Actual Time 5:59 AM CDT 7:42 PM CDT
Civil Twilight 5:28 AM CDT 8:13 PM CDT
Nautical Twilight 4:51 AM CDT 8:51 PM CDT
Astronomical Twilight 4:10 AM CDT 9:32 PM CDT
Moon 1:11 PM CDT (4/19) 2:31 AM CDT (4/19)
Length of Visible Light 14h 44m
Length of Day
13h 42m
First Quarter, 62% of the Moon is Illuminated
Apr 19
First Quarter
Apr 25
Full
May 2
Last Quarter
May 9
New
May 17
First Quarter

Hourly Weather History & Observations

Time (CDT) Temp. Windchill Dew Point Humidity Pressure Visibility Wind Dir Wind Speed Gust Speed Precip Events Conditions
12:15 AM 40.1 °F 36.1 °F 40.1 °F 100% 29.27 in 10.0 mi SSW 5.8 mph - N/A   Overcast
12:35 AM 41.2 °F 36.6 °F 41.0 °F 99% 29.26 in 10.0 mi SSW 6.9 mph - N/A   Overcast
12:55 AM 42.6 °F 36.8 °F 39.6 °F 89% 29.24 in 10.0 mi SW 10.4 mph - N/A   Overcast
1:15 AM 42.4 °F 37.0 °F 38.8 °F 87% 29.24 in 10.0 mi SW 9.2 mph - N/A   Overcast
1:35 AM 41.7 °F 34.8 °F 38.3 °F 88% 29.23 in 10.0 mi SSW 12.7 mph 17.3 mph N/A   Overcast
1:55 AM 41.0 °F 33.1 °F 37.2 °F 86% 29.24 in 10.0 mi SSW 15.0 mph 21.9 mph N/A   Overcast
2:15 AM 39.7 °F 32.7 °F 35.8 °F 86% 29.24 in 10.0 mi SW 11.5 mph 17.3 mph N/A   Overcast
2:35 AM 39.6 °F 33.0 °F 34.9 °F 83% 29.24 in 10.0 mi SW 10.4 mph - N/A   Overcast
2:55 AM 39.4 °F 33.2 °F 35.1 °F 84% 29.23 in 10.0 mi SW 9.2 mph - N/A   Overcast
3:15 AM 37.6 °F 30.0 °F 35.1 °F 91% 29.22 in 10.0 mi SSW 11.5 mph 18.4 mph N/A   Overcast
3:35 AM 37.0 °F 30.4 °F 34.7 °F 91% 29.22 in 10.0 mi SSW 9.2 mph 19.6 mph N/A   Overcast
3:55 AM 36.9 °F 30.1 °F 33.8 °F 89% 29.21 in 10.0 mi SSW 9.2 mph - N/A   Overcast
4:15 AM 36.9 °F 28.7 °F 32.9 °F 86% 29.21 in 10.0 mi SW 12.7 mph 20.7 mph N/A   Overcast
4:35 AM 36.5 °F 26.7 °F 31.6 °F 83% 29.21 in 10.0 mi SSW 17.3 mph 24.2 mph N/A   Overcast
4:55 AM 36.1 °F 29.3 °F 32.0 °F 85% 29.20 in 10.0 mi SSW 9.2 mph 20.7 mph N/A   Overcast
5:15 AM 35.6 °F 27.5 °F 31.5 °F 85% 29.20 in 10.0 mi SSW 11.5 mph 19.6 mph N/A   Overcast
5:55 AM 34.9 °F 27.1 °F 30.2 °F 83% 29.19 in 10.0 mi SW 10.4 mph 21.9 mph N/A   Overcast
6:15 AM 34.7 °F 24.7 °F 30.4 °F 84% 29.19 in 10.0 mi SW 16.1 mph 23.0 mph N/A   Overcast
6:35 AM 34.3 °F 25.9 °F 30.2 °F 85% 29.19 in 10.0 mi SSW 11.5 mph 21.9 mph N/A   Overcast
6:55 AM 34.3 °F 25.5 °F 29.8 °F 84% 29.19 in 10.0 mi SW 12.7 mph 23.0 mph N/A   Overcast
7:15 AM 34.3 °F 25.0 °F 29.5 °F 82% 29.19 in 10.0 mi SW 13.8 mph 20.7 mph N/A   Overcast
7:35 AM 34.7 °F 25.9 °F 29.1 °F 80% 29.18 in 10.0 mi SW 12.7 mph 24.2 mph N/A   Overcast
7:55 AM 34.9 °F 24.2 °F 29.7 °F 81% 29.18 in 10.0 mi SW 18.4 mph 26.5 mph N/A   Overcast
8:15 AM 34.7 °F 25.5 °F 29.8 °F 82% 29.18 in 10.0 mi WSW 13.8 mph 25.3 mph N/A   Overcast
8:35 AM 34.9 °F 26.2 °F 30.2 °F 83% 29.17 in 10.0 mi SW 12.7 mph 26.5 mph N/A   Overcast
8:55 AM 35.2 °F 25.4 °F 30.2 °F 82% 29.17 in 10.0 mi SW 16.1 mph 20.7 mph N/A   Overcast
9:15 AM 35.1 °F 25.9 °F 30.7 °F 84% 29.17 in 10.0 mi WSW 13.8 mph 23.0 mph N/A   Overcast
9:35 AM 35.1 °F 25.5 °F 31.6 °F 87% 29.18 in 10.0 mi WSW 15.0 mph 23.0 mph N/A   Overcast
9:55 AM 34.2 °F 25.2 °F 32.0 °F 92% 29.18 in 3.0 mi WSW 12.7 mph 23.0 mph N/A   Overcast
10:15 AM 35.1 °F 24.8 °F 32.0 °F 89% 29.19 in 7.0 mi WSW 17.3 mph 23.0 mph N/A   Overcast
10:35 AM 35.2 °F 26.6 °F 32.2 °F 89% 29.21 in 10.0 mi West 12.7 mph 21.9 mph N/A   Overcast
10:55 AM 35.2 °F 24.7 °F 30.6 °F 83% 29.22 in 10.0 mi West 18.4 mph 28.8 mph N/A   Overcast
11:15 AM 35.2 °F 23.5 °F 28.9 °F 78% 29.24 in 10.0 mi West 23.0 mph 28.8 mph N/A   Overcast
11:35 AM 35.8 °F 24.8 °F 26.8 °F 70% 29.25 in 10.0 mi West 20.7 mph 29.9 mph N/A   Overcast
11:55 AM 35.8 °F 26.1 °F 26.2 °F 68% 29.27 in 10.0 mi WNW 16.1 mph 25.3 mph N/A   Overcast
12:15 PM 35.4 °F 24.0 °F 24.6 °F 65% 29.28 in 10.0 mi WNW 21.9 mph 33.4 mph N/A   Overcast
12:35 PM 34.9 °F 23.0 °F 24.3 °F 65% 29.30 in 10.0 mi West 23.0 mph 36.8 mph N/A   Overcast
12:55 PM 35.6 °F 23.2 °F 24.1 °F 63% 29.31 in 10.0 mi West 26.5 mph 38.0 mph N/A   Overcast
1:15 PM 36.7 °F 26.3 °F 23.0 °F 58% 29.32 in 10.0 mi West 19.6 mph 27.6 mph N/A   Overcast
1:35 PM 39.4 °F 28.3 °F 22.1 °F 50% 29.34 in 10.0 mi West 26.5 mph 38.0 mph N/A   Overcast
1:55 PM 38.1 °F 27.9 °F 21.9 °F 52% 29.35 in 10.0 mi West 20.7 mph 40.3 mph N/A   Overcast
2:15 PM 37.2 °F 27.6 °F 21.0 °F 52% 29.36 in 10.0 mi WNW 17.3 mph 36.8 mph N/A   Overcast
2:35 PM 36.3 °F 24.4 °F 20.3 °F 52% 29.38 in 10.0 mi West 25.3 mph 38.0 mph N/A   Overcast
2:55 PM 37.8 °F 26.8 °F 21.0 °F 51% 29.39 in 10.0 mi West 23.0 mph 33.4 mph N/A   Overcast
3:15 PM 37.4 °F 26.9 °F 18.5 °F 46% 29.41 in 10.0 mi WNW 20.7 mph 33.4 mph N/A   Overcast
3:35 PM 36.9 °F 25.4 °F 18.3 °F 47% 29.42 in 10.0 mi WNW 24.2 mph 32.2 mph N/A   Overcast
3:55 PM 35.2 °F 26.2 °F 21.2 °F 57% 29.46 in 10.0 mi WNW 13.8 mph 26.5 mph N/A   Overcast
4:15 PM 35.8 °F 25.4 °F 18.1 °F 49% 29.47 in 10.0 mi WNW 18.4 mph 26.5 mph N/A   Overcast
4:35 PM 35.6 °F 27.1 °F 19.6 °F 52% 29.50 in 10.0 mi NW 12.7 mph 26.5 mph N/A   Overcast
4:55 PM 34.9 °F 24.9 °F 17.2 °F 49% 29.51 in 10.0 mi WNW 16.1 mph 21.9 mph N/A   Overcast
5:15 PM 33.4 °F 23.5 °F 17.4 °F 52% 29.54 in 10.0 mi WNW 15.0 mph 26.5 mph N/A   Overcast
5:35 PM 33.3 °F 23.2 °F 15.8 °F 49% 29.56 in 10.0 mi WNW 15.0 mph 24.2 mph N/A   Overcast
5:55 PM 32.9 °F 24.1 °F 15.4 °F 49% 29.58 in 10.0 mi NW 11.5 mph 19.6 mph N/A   Overcast
6:15 PM 32.2 °F 22.3 °F 16.2 °F 52% 29.59 in 10.0 mi NW 13.8 mph 21.9 mph N/A   Overcast
6:35 PM 32.0 °F 23.6 °F 16.7 °F 53% 29.61 in 10.0 mi NW 10.4 mph 17.3 mph N/A   Overcast
6:55 PM 31.6 °F 23.1 °F 14.5 °F 49% 29.62 in 10.0 mi WNW 10.4 mph 19.6 mph N/A   Mostly Cloudy
7:15 PM 30.9 °F 21.7 °F 14.9 °F 52% 29.64 in 10.0 mi NW 11.5 mph 24.2 mph N/A   Mostly Cloudy
7:35 PM 30.2 °F 20.2 °F 14.7 °F 53% 29.66 in 10.0 mi NW 12.7 mph 21.9 mph N/A   Overcast
7:55 PM 29.7 °F 20.7 °F 15.3 °F 55% 29.67 in 10.0 mi NW 10.4 mph 17.3 mph N/A   Overcast
8:15 PM 29.7 °F 18.2 °F 13.6 °F 51% 29.69 in 10.0 mi NNW 16.1 mph 21.9 mph N/A   Overcast
8:35 PM 29.5 °F 18.0 °F 12.9 °F 50% 29.71 in 10.0 mi NW 16.1 mph 24.2 mph N/A   Overcast
8:55 PM 28.4 °F 18.5 °F 15.3 °F 58% 29.73 in 10.0 mi NW 11.5 mph 25.3 mph N/A   Overcast
9:15 PM 28.4 °F 18.0 °F 14.5 °F 56% 29.75 in 10.0 mi NW 12.7 mph 19.6 mph N/A   Overcast
9:35 PM 28.4 °F 18.0 °F 12.9 °F 52% 29.76 in 10.0 mi NNW 12.7 mph 20.7 mph N/A   Mostly Cloudy
9:55 PM 27.7 °F 16.1 °F 13.1 °F 54% 29.77 in 10.0 mi NW 15.0 mph 20.7 mph N/A   Mostly Cloudy
10:15 PM 27.3 °F 15.6 °F 12.9 °F 55% 29.79 in 10.0 mi NNW 15.0 mph 25.3 mph N/A   Overcast
10:35 PM 27.1 °F 18.2 °F 13.1 °F 56% 29.80 in 10.0 mi NW 9.2 mph 20.7 mph N/A   Overcast
10:55 PM 27.0 °F 16.7 °F 13.1 °F 56% 29.81 in 10.0 mi NNW 11.5 mph - N/A   Overcast
11:15 PM 26.8 °F 16.5 °F 13.5 °F 57% 29.82 in 10.0 mi NNW 11.5 mph 25.3 mph N/A   Overcast
11:35 PM 26.6 °F 16.8 °F 14.7 °F 61% 29.83 in 10.0 mi NNW 10.4 mph 17.3 mph N/A   Overcast
11:55 PM 26.6 °F 15.7 °F 14.9 °F 61% 29.84 in 10.0 mi NNW 12.7 mph 16.1 mph N/A   Mostly Cloudy